Change the Weather History Date:

Tuesday, April 1, 2014

  Actual Average (KTOL) Record (KTOL)
Temperature  
Mean Temperature 54 °F 44 °F  
Max Temperature 64 °F 54 °F 80 °F (2010)
Min Temperature 43 °F 34 °F 11 °F (1964)
Degree Days  
Heating Degree Days 12 21  
Month to date heating degree days 21  
Since 1 July heating degree days 5447  
Cooling Degree Days 0 0  
Month to date cooling degree days 0  
Year to date cooling degree days 0  
Growing Degree Days 4 (Base 50)    
Moisture  
Dew Point 34 °F    
Average Humidity 50    
Maximum Humidity 71    
Minimum Humidity 35    
Precipitation  
Precipitation 0.02 in 0.10 in 0.79 in (1959)
Month to date precipitation 0.10  
Year to date precipitation 6.70  
Snow  
Snow 0.00 in 0.10 in - ()
Month to date snowfall 0.1  
Since 1 July snowfall 36.3  
Snow Depth -    
Sea Level Pressure  
Sea Level Pressure 29.90 in    
Wind  
Wind Speed 15 mph (SW)    
Max Wind Speed 33 mph    
Max Gust Speed 47 mph    
Visibility 10 miles    
Events Rain    
T = Trace of Precipitation, MM = Missing Value Source: NWS Daily Summary

Daily Weather History Graph

Daily Weather History Graph

Search for Another Location

Airport or City:

Trip Planner

Search our weather history database for the weather conditions in past years. The results will help you decide how hot, cold, wet, or windy it might be!

Date:

Astronomy

Apr. 01, 2014 Rise Set
Actual Time 7:16 AM EDT 7:59 PM EDT
Civil Twilight 6:48 AM EDT 8:27 PM EDT
Nautical Twilight 6:15 AM EDT 9:00 PM EDT
Astronomical Twilight 5:41 AM EDT 9:34 PM EDT
Moon 8:17 AM EDT 10:22 PM EDT
Length of Visible Light 13h 38m
Length of Day
12h 42m
Waxing Crescent, 4% of the Moon is Illuminated
Apr 1
Waxing Crescent
Apr 7
First Quarter
Apr 15
Full
Apr 22
Last Quarter
Apr 29
New

Hourly Weather History & Observations

Time (EDT) Temp. Windchill Dew Point Humidity Pressure Visibility Wind Dir Wind Speed Gust Speed Precip Events Conditions
12:53 AM 43.0 °F - 33.1 °F 68% 29.98 in 10.0 mi North - - N/A   Mostly Cloudy
1:53 AM 45.0 °F - 34.0 °F 65% 29.98 in 10.0 mi Calm Calm - N/A   Overcast
2:53 AM 51.1 °F - 32.0 °F 48% 29.96 in 10.0 mi SSE 11.5 mph - N/A   Overcast
3:53 AM 52.0 °F - 30.0 °F 43% 29.94 in 10.0 mi SSE 13.8 mph - N/A   Mostly Cloudy
4:53 AM 52.0 °F - 30.9 °F 45% 29.95 in 10.0 mi South 15.0 mph - N/A   Mostly Cloudy
5:53 AM 50.0 °F - 37.9 °F 63% 29.92 in 8.0 mi South 13.8 mph - 0.01 in Rain Light Rain
6:53 AM 48.9 °F - 39.9 °F 71% 29.86 in 10.0 mi SE 11.5 mph - 0.01 in   Overcast
7:53 AM 48.9 °F - 37.0 °F 64% 29.84 in 10.0 mi SSE 15.0 mph - N/A   Scattered Clouds
8:53 AM 50.0 °F - 37.0 °F 61% 29.83 in 10.0 mi South 19.6 mph - N/A   Scattered Clouds
9:53 AM 57.0 °F - 37.9 °F 49% 29.81 in 10.0 mi South 21.9 mph 29.9 mph N/A   Scattered Clouds
10:53 AM 62.1 °F - 39.9 °F 44% 29.80 in 10.0 mi SW 27.6 mph 36.8 mph N/A   Clear
11:53 AM 64.0 °F - 41.0 °F 43% 29.79 in 10.0 mi SW 26.5 mph 39.1 mph N/A   Scattered Clouds
12:53 PM 62.1 °F - 39.9 °F 44% 29.80 in 10.0 mi WSW 26.5 mph 41.4 mph N/A   Scattered Clouds
1:53 PM 61.0 °F - 34.0 °F 36% 29.80 in 10.0 mi WSW 28.8 mph 41.4 mph N/A   Clear
2:53 PM 60.1 °F - 34.0 °F 38% 29.81 in 10.0 mi WSW 26.5 mph 41.4 mph N/A   Clear
3:53 PM 61.0 °F - 33.1 °F 35% 29.81 in 10.0 mi WSW 28.8 mph 38.0 mph N/A   Clear
4:53 PM 57.0 °F - 30.0 °F 36% 29.85 in 10.0 mi WSW 33.4 mph 47.2 mph N/A   Clear
5:53 PM 54.0 °F - 30.9 °F 41% 29.88 in 10.0 mi WSW 27.6 mph 38.0 mph N/A   Clear
6:53 PM 53.1 °F - 30.9 °F 43% 29.91 in 10.0 mi West 25.3 mph 36.8 mph N/A   Clear
7:53 PM 52.0 °F - 32.0 °F 47% 29.94 in 10.0 mi WSW 17.3 mph 33.4 mph N/A   Clear
8:53 PM 50.0 °F - 32.0 °F 50% 29.97 in 10.0 mi West 16.1 mph - N/A   Clear
9:53 PM 48.9 °F - 32.0 °F 52% 29.99 in 10.0 mi WSW 13.8 mph - N/A   Clear
10:53 PM 46.0 °F 41.0 °F 32.0 °F 58% 30.02 in 10.0 mi West 10.4 mph - N/A   Clear
11:53 PM 45.0 °F 39.3 °F 30.9 °F 58% 30.06 in 10.0 mi WNW 11.5 mph - N/A   Clear